DLH202 EDDF-EDDB

Flight info

Callsign DLH202
Flight time N/A
Altitude 25000
Route TOBAK8M/25C TOBAK N858 SWALM T201 TAMEB T278 KLF
Aircraft A321/M-VGDW/C

Departure

Time 2026-05-06 18:59
Airport Frankfurt Main Airport (EDDF)

Arrival

Time N/A
Airport Berlin Brandenburg Airport (EDDB)
Time Latitude Longitude Altitude Speed Heading
2026-05-06 17:59 50.04579 8.56625 346 ft 0 kts 115°
2026-05-06 18:41 50.04586 8.56602 361 ft 4 kts 115°
2026-05-06 18:41 50.04598 8.56564 355 ft 4 kts 117°
2026-05-06 18:41 50.04611 8.56527 353 ft 4 kts 128°
2026-05-06 18:42 50.04629 8.56502 356 ft 4 kts 173°
2026-05-06 18:42 50.04631 8.56497 356 ft 4 kts 204°
2026-05-06 18:42 50.04607 8.56480 351 ft 4 kts 204°
2026-05-06 18:42 50.04583 8.56463 345 ft 2 kts 205°
2026-05-06 18:43 50.04581 8.56461 345 ft 0 kts 205°
2026-05-06 18:48 50.04566 8.56453 347 ft 7 kts 198°
2026-05-06 18:49 50.04553 8.56446 355 ft 2 kts 205°
2026-05-06 18:49 50.04536 8.56425 354 ft 4 kts 222°
2026-05-06 18:49 50.04517 8.56385 349 ft 5 kts 242°
2026-05-06 18:49 50.04501 8.56321 350 ft 8 kts 250°
2026-05-06 18:50 50.04480 8.56230 353 ft 10 kts 250°
2026-05-06 18:50 50.04453 8.56118 353 ft 11 kts 250°
2026-05-06 18:50 50.04442 8.56075 347 ft 3 kts 247°
2026-05-06 18:50 50.04416 8.56036 347 ft 8 kts 202°
2026-05-06 18:51 50.04354 8.56051 350 ft 11 kts 159°
2026-05-06 18:51 50.04295 8.56115 350 ft 11 kts 114°
2026-05-06 18:51 50.04264 8.56221 352 ft 11 kts 148°
2026-05-06 18:51 50.04187 8.56270 351 ft 12 kts 160°
2026-05-06 18:52 50.04151 8.56368 348 ft 12 kts 80°
2026-05-06 18:52 50.04179 8.56496 348 ft 13 kts 70°
2026-05-06 18:52 50.04212 8.56633 353 ft 14 kts 70°
2026-05-06 18:52 50.04246 8.56778 352 ft 15 kts 69°
2026-05-06 18:53 50.04284 8.56936 353 ft 16 kts 70°
2026-05-06 18:53 50.04323 8.57103 348 ft 17 kts 70°
2026-05-06 18:53 50.04367 8.57278 351 ft 18 kts 68°
2026-05-06 18:53 50.04409 8.57461 348 ft 18 kts 69°
2026-05-06 18:54 50.04455 8.57651 347 ft 19 kts 69°
2026-05-06 18:54 50.04503 8.57850 354 ft 20 kts 69°
2026-05-06 18:54 50.04545 8.58039 355 ft 18 kts 71°
2026-05-06 18:54 50.04586 8.58199 348 ft 14 kts 70°
2026-05-06 18:55 50.04621 8.58348 351 ft 15 kts 70°
2026-05-06 18:55 50.04651 8.58475 349 ft 10 kts 70°
2026-05-06 18:55 50.04628 8.58566 346 ft 10 kts 149°
2026-05-06 18:55 50.04588 8.58591 349 ft 5 kts 160°
2026-05-06 18:56 50.04531 8.58617 349 ft 13 kts 173°
2026-05-06 18:56 50.04481 8.58554 348 ft 0 kts 247°
2026-05-06 18:57 50.04480 8.58553 348 ft 1 kts 247°
2026-05-06 18:58 50.04435 8.58367 356 ft 52 kts 250°
2026-05-06 18:58 50.04225 8.57485 356 ft 120 kts 250°
2026-05-06 18:58 50.03868 8.55991 354 ft 172 kts 250°
2026-05-06 18:58 50.03428 8.54160 756 ft 185 kts 250°
2026-05-06 18:59 50.02980 8.52273 1394 ft 189 kts 252°
2026-05-06 18:59 50.02527 8.50318 2067 ft 192 kts 253°
2026-05-06 18:59 50.02074 8.48329 2530 ft 204 kts 253°
2026-05-06 18:59 50.01582 8.46120 2741 ft 229 kts 252°
2026-05-06 19:00 50.01048 8.43670 3094 ft 248 kts 252°
2026-05-06 19:00 50.00504 8.41094 3613 ft 253 kts 252°
2026-05-06 19:00 49.99969 8.38481 4405 ft 254 kts 252°
2026-05-06 19:00 49.99621 8.36748 4935 ft 254 kts 252°
2026-05-06 19:01 49.98931 8.33215 5917 ft 256 kts 253°
2026-05-06 19:01 49.98418 8.30578 6368 ft 260 kts 253°
2026-05-06 19:01 49.97892 8.27862 6851 ft 264 kts 253°
2026-05-06 19:01 49.97364 8.25132 7443 ft 265 kts 252°
2026-05-06 19:02 49.96835 8.22383 8142 ft 267 kts 253°
2026-05-06 19:02 49.96293 8.19605 8822 ft 270 kts 253°
2026-05-06 19:02 49.95741 8.16803 9502 ft 273 kts 252°
2026-05-06 19:02 49.95178 8.13951 9780 ft 276 kts 252°
2026-05-06 19:03 49.94615 8.11104 9839 ft 276 kts 253°
2026-05-06 19:03 49.94048 8.08245 9846 ft 277 kts 252°
2026-05-06 19:03 49.93689 8.05298 9849 ft 289 kts 270°
2026-05-06 19:03 49.94146 8.02134 9853 ft 317 kts 295°
2026-05-06 19:04 49.95613 7.99420 9851 ft 346 kts 322°
2026-05-06 19:04 49.97875 7.97940 9849 ft 363 kts 349°
2026-05-06 19:04 50.00307 7.98111 9848 ft 371 kts 14°
2026-05-06 19:05 50.02037 7.99266 9845 ft 364 kts 30°
2026-05-06 19:05 50.04026 8.01697 9839 ft 363 kts 43°
2026-05-06 19:05 50.05775 8.04594 9842 ft 365 kts 48°
2026-05-06 19:05 50.07448 8.07596 9843 ft 365 kts 48°
2026-05-06 19:06 50.09158 8.10539 10005 ft 370 kts 45°
2026-05-06 19:06 50.10985 8.13437 10423 ft 379 kts 43°
2026-05-06 19:06 50.12908 8.16272 10967 ft 382 kts 41°
2026-05-06 19:06 50.14872 8.19023 11497 ft 386 kts 41°
2026-05-06 19:07 50.16903 8.21799 12042 ft 390 kts 40°
2026-05-06 19:07 50.18288 8.23682 12419 ft 392 kts 40°
2026-05-06 19:07 50.21012 8.27407 12803 ft 394 kts 41°
2026-05-06 19:07 50.23066 8.30249 12842 ft 394 kts 41°
2026-05-06 19:08 50.25109 8.33105 12844 ft 394 kts 41°
2026-05-06 19:08 50.27148 8.35980 13059 ft 397 kts 42°
2026-05-06 19:08 50.28508 8.37904 13474 ft 398 kts 42°
2026-05-06 19:08 50.30568 8.40818 14010 ft 400 kts 42°
2026-05-06 19:09 50.32640 8.43747 14522 ft 403 kts 42°
2026-05-06 19:09 50.34724 8.46692 15018 ft 406 kts 41°
2026-05-06 19:09 50.36832 8.49668 15460 ft 410 kts 41°
2026-05-06 19:09 50.38958 8.52670 15921 ft 413 kts 41°
2026-05-06 19:10 50.41094 8.55687 16381 ft 415 kts 41°
2026-05-06 19:10 50.43246 8.58729 16857 ft 418 kts 41°
2026-05-06 19:10 50.45414 8.61798 17319 ft 420 kts 41°
2026-05-06 19:10 50.47587 8.64881 17765 ft 423 kts 41°